Waarnemingen

Advertentie
Mijn weer
Woensdrecht, Nederland (6340): temperatuur & dauwpunt: 20.03.2017 00:00:00 - 26.03.2017 00:00:00 (CET)Woensdrecht, Nederland (6340): temperatuur 5cm: 20.03.2017 00:00:00 - 26.03.2017 00:00:00 (CET)Woensdrecht, Nederland (6340): windsnelheid & windstoten: 20.03.2017 00:00:00 - 26.03.2017 00:00:00 (CET)Woensdrecht, Nederland (6340): windrichting: 20.03.2017 00:00:00 - 26.03.2017 00:00:00 (CET)Woensdrecht, Nederland (6340): luchtdruk: 20.03.2017 00:00:00 - 26.03.2017 00:00:00 (CET)Woensdrecht, Nederland (6340): zicht: 20.03.2017 00:00:00 - 26.03.2017 00:00:00 (CET)
Datum & Tijd tt [°C] td [°C] tt 5cm [°C] ff [km/u] ff [kn] fx [km/u] fx [kn] dd ppp [hPa] vv [km]
26.03.2017 00:00:00 7,5 -0,2 6,3 28 15 36 19 ONO 1025,0 10
25.03.2017 23:00:00 8,3 -1,2 7,0 26 14 40 21 ONO 1025,0 10
25.03.2017 22:00:00 9,0 -1,1 7,7 24 13 36 19 NO 1025,1 10
25.03.2017 21:00:00 10,5 -1,8 9,0 26 14 40 21 NO 1025,3 10
25.03.2017 20:00:00 10,7 -1,5 9,4 24 13 32 18 NO 1025,2 10
25.03.2017 19:00:00 12,0 -2,3 10,4 22 12 40 21 NO 1024,9 10
25.03.2017 18:00:00 13,9 -3,5 13,0 28 15 43 23 NO 1024,7 10
25.03.2017 17:00:00 14,6 -1,4 14,3 39 21 50 27 ONO 1025,1 10
25.03.2017 16:00:00 15,4 -0,9 15,4 35 19 47 25 ONO 1025,7 10
25.03.2017 15:00:00 15,0 -2,5 14,9 37 20 50 27 NO 1026,4 10
25.03.2017 14:00:00 14,6 -2,0 15,5 37 20 50 27 ONO 1027,5 10
25.03.2017 13:00:00 14,1 0,2 15,1 35 19 50 27 NO 1028,5 10
25.03.2017 12:00:00 12,6 1,7 13,5 34 18 47 25 ONO 1029,2 10
25.03.2017 11:00:00 12,6 2,3 13,9 24 13 43 23 NO 1029,7 10
25.03.2017 10:00:00 10,6 2,7 10,9 24 13 36 19 ONO 1030,3 10
25.03.2017 09:00:00 7,5 1,8 8,1 21 11 29 16 ONO 1030,6 10
25.03.2017 08:00:00 5,5 1,1 4,9 18 10 29 16 ONO 1030,6 10
25.03.2017 07:00:00 3,3 0,6 1,8 16 9 29 16 ONO 1030,6 10
25.03.2017 06:00:00 4,1 0,8 2,7 16 9 25 14 NO 1030,5 10
25.03.2017 05:00:00 3,9 0,9 2,7 16 9 25 14 ONO 1030,6 10
25.03.2017 04:00:00 4,7 1,1 3,2 16 9 25 14 ONO 1030,8 10
25.03.2017 03:00:00 5,1 1,2 3,7 16 9 25 14 ONO 1030,8 10
25.03.2017 02:00:00 5,5 1,4 4,1 18 10 29 16 ONO 1031,3 10
25.03.2017 01:00:00 4,9 1,3 3,4 15 8 25 14 ONO 1031,2 10
25.03.2017 00:00:00 7,0 1,8 4,0 15 8 25 14 ONO 1031,5 10
24.03.2017 23:00:00 7,4 2,1 5,9 18 10 29 16 ONO 1031,4 10
24.03.2017 22:00:00 9,0 2,6 7,4 22 12 32 18 ONO 1031,0 10
24.03.2017 21:00:00 9,6 3,4 7,8 22 12 32 18 NO 1030,4 10
24.03.2017 20:00:00 8,5 3,2 7,0 18 10 29 16 ONO 1029,6 10
24.03.2017 19:00:00 10,8 3,7 9,4 24 13 40 21 ONO 1029,3 10
24.03.2017 18:00:00 12,6 4,1 11,9 28 15 43 23 NO 1028,9 10
24.03.2017 17:00:00 14,1 4,6 14,0 24 13 36 19 ONO 1028,1 10
24.03.2017 16:00:00 14,0 4,4 14,8 22 12 36 19 O 1028,1 10
24.03.2017 15:00:00 13,7 4,6 14,8 26 14 40 21 ONO 1027,9 10
24.03.2017 14:00:00 12,6 4,5 13,5 31 17 43 23 O 1027,9 10
24.03.2017 13:00:00 11,7 4,3 13,4 22 12 36 19 ONO 1028,7 10
24.03.2017 12:00:00 10,9 4,5 11,8 22 12 40 21 ONO 1028,6 10
24.03.2017 11:00:00 10,4 4,6 11,8 29 16 40 21 ONO 1028,2 10
24.03.2017 10:00:00 8,2 4,3 8,5 18 10 36 19 O 1028,1 10
24.03.2017 09:00:00 7,3 4,6 6,7 16 9 25 14 ONO 1027,8 7
24.03.2017 08:00:00 6,2 4,1 5,6 15 8 29 16 O 1027,0 5
24.03.2017 07:00:00 5,4 3,9 4,5 18 10 29 16 ONO 1025,0 4,7
24.03.2017 06:00:00 4,9 3,7 3,9 18 10 29 16 ONO 1024,4 4,0
24.03.2017 05:00:00 5,1 3,8 4,3 22 12 32 18 ONO 1024,0 4,5
24.03.2017 04:00:00 5,4 3,8 4,7 26 14 36 19 ONO 1023,5 5
24.03.2017 03:00:00 6,0 4,0 5,2 26 14 32 18 ONO 1023,4 7
24.03.2017 02:00:00 7,0 4,1 6,4 16 9 36 19 O 1023,7 9
24.03.2017 01:00:00 6,9 4,0 5,9 22 12 32 18 ONO 1022,6 10
24.03.2017 00:00:00 7,0 4,1 6,0 18 10 36 19 O 1022,3 10
23.03.2017 23:00:00 8,0 4,3 7,0 24 13 36 19 ONO 1020,9 10
23.03.2017 22:00:00 9,1 4,0 7,7 24 13 32 18 ONO 1020,0 10
23.03.2017 21:00:00 9,3 4,1 8,1 21 11 32 18 ONO 1019,3 10
23.03.2017 20:00:00 10,4 4,5 9,3 26 14 36 19 NO 1018,3 10
23.03.2017 19:00:00 11,2 4,6 9,0 18 10 32 18 ONO 1017,6 10
23.03.2017 18:00:00 13,1 4,3 12,3 22 12 36 19 ONO 1016,6 10
23.03.2017 17:00:00 14,0 3,8 14,0 26 14 36 19 ONO 1016,0 10
23.03.2017 16:00:00 14,3 4,5 15,0 28 15 36 19 ONO 1015,5 10
23.03.2017 15:00:00 14,1 3,6 14,9 22 12 36 19 ONO 1015,6 10
23.03.2017 14:00:00 13,5 4,1 15,2 22 12 40 21 O 1015,5 10
23.03.2017 13:00:00 13,5 4,2 14,1 24 13 43 23 O 1015,4 10
23.03.2017 12:00:00 11,7 3,5 13,6 26 14 43 23 O 1015,1 10
23.03.2017 11:00:00 11,1 4,4 12,0 26 14 36 19 O 1015,1 10
23.03.2017 10:00:00 9,0 5,0 9,9 21 11 25 14 ONO 1015,3 10
23.03.2017 09:00:00 5,7 3,6 5,4 11 6 18 10 ONO 1015,3 10
23.03.2017 08:00:00 4,0 2,8 2,0 11 6 14 8 ONO 1014,8 5
23.03.2017 07:00:00 1,2 0,8 -1,5 9 5 11 6 ONO 1014,4 3,4
23.03.2017 06:00:00 1,8 1,1 -0,3 13 7 14 8 ONO 1013,6 4,5
23.03.2017 05:00:00 2,1 1,4 -0,1 11 6 14 8 ONO 1013,6 4,4
23.03.2017 04:00:00 1,1 0,2 -0,6 8 4 11 6 O 1013,7 6
23.03.2017 03:00:00 2,1 1,2 0,4 11 6 14 8 ONO 1013,8 10
23.03.2017 02:00:00 4,5 2,9 3,3 9 5 14 8 O 1013,6 10
23.03.2017 01:00:00 2,8 1,0 -0,1 8 4 11 6 O 1013,3 10
23.03.2017 00:00:00 4,5 2,3 1,4 8 4 14 8 O 1013,2 10
22.03.2017 23:00:00 5,2 2,0 1,9 8 4 11 6 O 1013,1 10
22.03.2017 22:00:00 5,8 1,6 1,3 8 4 11 6 O 1013,0 10
22.03.2017 21:00:00 7,2 1,9 3,4 8 4 11 6 O 1012,7 10
22.03.2017 20:00:00 8,5 1,6 6,6 5 3 14 8 OZO 1012,7 10
22.03.2017 19:00:00 9,1 0,7 6,7 5 3 7 4 O 1012,3 10
22.03.2017 18:00:00 10,4 0,8 9,3 8 4 18 10 OZO 1011,6 10
22.03.2017 17:00:00 11,1 -1,4 10,6 9 5 22 12 ZZO 1011,5 10
22.03.2017 16:00:00 11,1 1,2 10,5 13 7 25 14 ZZO 1011,4 10
22.03.2017 15:00:00 11,2 0,3 11,4 14 8 32 18 ZZO 1011,5 43
22.03.2017 14:00:00 12,5 0,0 13,3 18 10 36 19 ZZO 1011,6 10
22.03.2017 13:00:00 11,6 -0,2 11,6 16 9 32 18 - 1011,9 10
22.03.2017 12:00:00 10,7 -1,0 12,4 15 8 29 16 Z 1012,3 10
22.03.2017 11:00:00 9,9 -1,5 11,5 16 9 32 18 ZZO 1012,7 10
22.03.2017 10:00:00 8,6 0,3 10,2 11 6 29 16 ZZO 1012,7 10
22.03.2017 09:00:00 6,6 0,1 6,8 13 7 25 14 ZZO 1012,8 10
22.03.2017 08:00:00 4,5 -0,4 3,1 8 4 14 8 ZZO 1012,4 10
22.03.2017 07:00:00 2,3 -0,6 0,7 8 4 14 8 ZZO 1012,6 10
22.03.2017 06:00:00 2,2 -0,5 -0,2 5 3 11 6 ZZO 1012,6 10
22.03.2017 05:00:00 -0,3 -2,4 -1,4 5 3 11 6 ZO 1012,6 10
22.03.2017 04:00:00 2,6 0,0 0,3 8 4 14 8 ZZO 1013,0 10
22.03.2017 03:00:00 2,8 0,4 0,2 8 4 14 8 ZZO 1013,1 10
22.03.2017 02:00:00 0,7 -0,6 -1,7 4 2 11 6 - 1013,2 10
22.03.2017 01:00:00 3,8 0,6 1,5 5 3 22 12 Z 1013,1 10
22.03.2017 00:00:00 6,2 0,7 4,7 11 6 22 12 ZZW 1013,4 10
21.03.2017 23:00:00 6,1 0,6 4,7 15 8 22 12 ZW 1013,5 10
21.03.2017 22:00:00 6,2 0,2 4,4 13 7 22 12 ZW 1013,1 10
21.03.2017 21:00:00 6,4 0,5 4,1 8 4 18 10 ZZW 1013,2 10
21.03.2017 20:00:00 3,5 0,8 0,0 5 3 11 6 Z 1013,0 10
21.03.2017 19:00:00 5,5 0,7 2,3 2 1 18 10 - 1012,5 10
21.03.2017 18:00:00 8,6 -0,5 8,4 16 9 25 14 W 1011,9 10
21.03.2017 17:00:00 9,2 -1,2 9,6 21 11 32 18 W 1011,9 10
21.03.2017 16:00:00 9,8 0,5 9,8 22 12 40 21 W 1011,6 10
21.03.2017 15:00:00 9,4 -0,4 9,8 28 15 43 23 W 1011,5 10
21.03.2017 14:00:00 9,2 0,8 10,4 28 15 43 23 W 1011,1 10
21.03.2017 13:00:00 8,9 -0,1 9,3 28 15 47 25 W 1010,8 10
21.03.2017 12:00:00 9,3 2,0 10,3 29 16 43 23 W 1010,4 10
21.03.2017 11:00:00 9,6 2,5 9,8 26 14 43 23 W 1009,7 10
21.03.2017 10:00:00 9,3 4,0 9,1 29 16 43 23 W 1008,9 10
21.03.2017 09:00:00 8,6 5,8 8,2 26 14 43 23 WZW 1008,1 10
21.03.2017 08:00:00 8,1 6,5 7,7 21 11 32 18 WZW 1007,3 10
21.03.2017 07:00:00 8,3 6,8 7,8 16 9 29 16 ZW 1006,7 10
21.03.2017 06:00:00 8,0 6,8 7,1 16 9 29 16 WZW 1006,5 10
21.03.2017 05:00:00 8,3 6,4 7,8 21 11 32 18 WZW 1006,5 10
21.03.2017 04:00:00 7,9 6,3 7,2 18 10 29 16 WZW 1006,1 10
21.03.2017 03:00:00 8,4 7,0 7,6 18 10 32 18 WZW 1005,9 10
21.03.2017 02:00:00 9,3 8,3 9,0 21 11 32 18 WZW 1005,9 10
21.03.2017 01:00:00 9,8 8,5 9,3 28 15 43 23 W 1005,6 10
21.03.2017 00:00:00 9,8 9,2 9,5 18 10 32 18 ZW 1005,4 9
20.03.2017 23:00:00 9,6 9,1 9,4 22 12 36 19 ZW 1005,0 4,3
20.03.2017 22:00:00 9,6 9,1 9,5 16 9 36 19 ZW 1004,9 3,5
20.03.2017 21:00:00 10,1 8,9 9,8 22 12 50 27 ZW 1005,0 5
20.03.2017 20:00:00 10,9 8,0 10,4 21 11 43 23 ZW 1004,8 10
20.03.2017 19:00:00 10,9 8,5 10,3 18 10 32 18 ZZW 1004,7 10
20.03.2017 18:00:00 10,2 9,4 9,9 24 13 40 21 ZW 1005,4 9
20.03.2017 17:00:00 10,3 9,2 10,1 21 11 40 21 ZW 1005,5 5
20.03.2017 16:00:00 10,6 9,1 10,4 28 15 43 23 ZW 1005,6 8
20.03.2017 15:00:00 11,2 8,6 11,0 26 14 50 27 ZW 1005,5 10
20.03.2017 14:00:00 11,3 8,3 11,3 28 15 43 23 ZZW 1006,0 10
20.03.2017 13:00:00 11,4 7,9 11,2 24 13 40 21 ZW 1006,4 10
20.03.2017 12:00:00 11,2 7,8 11,0 24 13 47 25 ZW 1006,7 10
20.03.2017 11:00:00 10,8 8,0 10,8 26 14 43 23 ZW 1006,9 10
20.03.2017 10:00:00 9,8 9,1 9,8 22 12 40 21 ZW 1007,1 4,3
20.03.2017 09:00:00 9,7 9,2 9,7 21 11 36 19 ZW 1007,3 2,8
20.03.2017 08:00:00 9,9 9,2 9,8 18 10 40 21 ZW 1007,7 4,7
20.03.2017 07:00:00 10,5 8,9 10,3 24 13 40 21 ZW 1007,8 10
20.03.2017 06:00:00 10,6 9,1 10,4 22 12 36 19 ZW 1007,7 10
20.03.2017 05:00:00 10,6 9,0 10,4 22 12 32 18 ZW 1007,7 10
20.03.2017 04:00:00 10,7 8,8 10,5 16 9 36 19 ZW 1008,1 10
20.03.2017 03:00:00 10,9 8,7 10,6 22 12 36 19 ZW 1008,5 10
20.03.2017 02:00:00 11,0 8,7 10,6 21 11 36 19 ZW 1008,4 10
20.03.2017 01:00:00 11,0 8,5 10,7 22 12 36 19 ZW 1008,6 10
20.03.2017 00:00:00 11,1 8,5 10,7 22 12 36 19 WZW 1008,5 10

tt = temperatuur
td = dauwpunt
tt 5cm = temperatuur 5cm
ff = windsnelheid
fx = windstoten
dd = windrichting
ppp = luchtdruk
vv = zicht

Weerstations in de omgeving